Location: White Mills Observatory
(37.5374°N, 86.0303°W)
Time: 12:32:03
(UTC-04:00)

HST - Visible Passes

Search period start: 20 August 2014 00:00
Search period end: 30 August 2014 00:00
Orbit: 548 x 551 km, 28.5° (Epoch: 19 August)

Date Brightness Start Highest point End Pass type
(mag) Time Alt. Az. Time Alt. Az. Time Alt. Az.
20 Aug 2.9 06:08:44 10° SSW 06:11:20 16° SSE 06:13:56 10° SE visible
21 Aug 2.7 06:02:02 13° SSW 06:04:19 18° SSE 06:07:14 10° SE visible
22 Aug 2.5 05:55:31 16° SSW 05:57:18 20° S 06:00:26 10° ESE visible
23 Aug 2.3 05:49:00 19° SSW 05:50:18 22° S 05:53:34 10° ESE visible
24 Aug 2.2 05:42:30 22° SSW 05:43:18 23° S 05:46:39 10° SE visible
25 Aug 2.2 05:36:03 23° S 05:36:18 23° S 05:39:40 10° SE visible
26 Aug 2.3 05:29:38 23° S 05:29:38 23° S 05:32:39 10° SE visible
27 Aug 2.5 05:23:18 20° SSE 05:23:18 20° SSE 05:25:35 10° SE visible
28 Aug 2.9 05:17:03 16° SSE 05:17:03 16° SSE 05:18:26 10° SE visible
29 Aug 3.3 05:10:55 11° SSE 05:10:55 11° SSE 05:11:13 10° SSE visible
